GW0774 Weather Reports


time (UTC)temp
C
wind
direction
speed
KPH
gust
KPH
rain 1hr
cm
rain 24hr
cm
rain mn
cm
humidity
%
barometer
mb
20260904164039 11 255 11.3 24.1 0.00 0.10 0.00 83 1012.4
20260904163539 11 267 6.4 19.3 0.00 0.10 0.00 83 1012.3
20260904163052 11 302 8.0 29.0 0.00 0.10 0.00 82 1012.1
20260904162539 11 261 11.3 29.0 0.00 0.10 0.00 82 1012.1
20260904162042 11 237 9.7 22.5 0.00 0.10 0.00 82 1012.0
20260904161610 11 239 9.7 19.3 0.00 0.10 0.00 82 1011.9
20260904161039 11 248 6.4 22.5 0.00 0.10 0.00 82 1011.9
20260904160539 11 240 8.0 22.5 0.00 0.10 0.00 82 1011.8
20260904155539 11 261 12.9 25.7 0.00 0.10 0.00 81 1011.6
20260904155036 11 237 11.3 29.0 0.00 0.10 0.00 81 1011.5
20260904154555 11 294 12.9 29.0 0.00 0.10 0.00 81 1011.5
20260904154039 11 277 16.1 33.8 0.00 0.10 0.00 81 1011.4
20260904153539 11 244 11.3 33.8 0.00 0.10 0.00 81 1011.2
20260904153101 11 246 12.9 29.0 0.00 0.10 0.00 82 1011.3
20260904152538 11 263 11.3 22.5 0.00 0.10 0.00 83 1011.2
20260904152038 11 286 9.7 22.5 0.00 0.10 0.00 82 1011.2
20260904151601 11 320 11.3 22.5 0.00 0.10 0.00 82 1011.3
20260904151039 11 244 11.3 27.4 0.00 0.10 0.00 81 1011.4
20260904150539 11 280 14.5 27.4 0.00 0.10 0.00 81 1011.3
20260904150104 11 278 12.9 27.4 0.00 0.10 0.00 81 1011.4
20260904145539 11 286 11.3 27.4 0.00 0.10 0.00 81 1011.3
20260904145039 11 270 16.1 33.8 0.00 0.10 0.00 81 1011.1
20260904144613 11 283 14.5 33.8 0.00 0.10 0.00 80 1011.0
20260904144040 11 286 16.1 33.8 0.00 0.10 0.00 80 1011.4
20260904143539 11 301 14.5 25.7 0.00 0.10 0.00 80 1011.3
20260904143057 11 249 14.5 32.2 0.00 0.10 0.00 79 1011.3
20260904142539 11 246 16.1 32.2 0.00 0.10 0.00 79 1011.1
20260904142040 11 243 14.5 30.6 0.00 0.10 0.00 79 1011.1
20260904141606 11 242 14.5 30.6 0.00 0.10 0.00 80 1011.1
20260904141039 11 253 14.5 29.0 0.00 0.10 0.00 80 1011.0
20260904140538 11 259 16.1 29.0 0.00 0.10 0.00 81 1011.1
20260904140056 11 244 14.5 27.4 0.00 0.10 0.00 81 1011.0
20260904135539 11 265 11.3 32.2 0.00 0.10 0.00 80 1011.1
20260904135038 11 292 14.5 33.8 0.00 0.10 0.00 79 1011.2
20260904134552 12 258 17.7 33.8 0.00 0.10 0.00 78 1011.0
20260904134039 11 245 12.9 27.4 0.00 0.10 0.00 79 1011.1
20260904133541 12 257 16.1 32.2 0.00 0.10 0.00 78 1011.2
20260904133057 12 247 19.3 32.2 0.00 0.10 0.00 78 1011.1
20260904132539 12 283 19.3 25.7 0.00 0.10 0.00 78 1011.1
20260904132039 12 243 17.7 25.7 0.00 0.10 0.00 79 1011.3
20260904131606 11 257 14.5 24.1 0.00 0.10 0.00 80 1011.2
20260904131039 11 232 11.3 25.7 0.00 0.10 0.00 79 1011.1
20260904130539 12 259 12.9 30.6 0.00 0.10 0.00 78 1011.1
20260904130057 12 244 16.1 30.6 0.00 0.10 0.00 77 1011.1
20260904125539 11 259 11.3 30.6 0.00 0.10 0.00 78 1011.1
20260904125043 11 259 14.5 30.6 0.00 0.10 0.00 77 1011.1
20260904124603 11 249 9.7 27.4 0.00 0.10 0.00 78 1011.1
20260904124039 11 254 11.3 27.4 0.00 0.10 0.00 77 1011.1
20260904123538 11 259 11.3 25.7 0.00 0.10 0.00 77 1011.0
20260904123054 11 272 12.9 30.6 0.00 0.10 0.00 77 1010.9
20260904122539 12 296 12.9 30.6 0.00 0.10 0.00 77 1010.8
20260904122045 11 246 12.9 30.6 0.00 0.10 0.00 78 1010.6
20260904121559 12 247 12.9 33.8 0.00 0.10 0.00 77 1010.6
20260904121038 12 240 17.7 33.8 0.00 0.10 0.00 76 1010.6
20260904120538 12 259 12.9 32.2 0.00 0.10 0.00 76 1010.6
20260904120106 12 239 17.7 37.0 0.00 0.10 0.00 76 1010.6
20260904115538 12 277 14.5 37.0 0.00 0.10 0.10 77 1010.6
20260904115039 12 248 20.9 37.0 0.00 0.10 0.10 77 1010.4
20260904114557 11 279 14.5 25.7 0.00 0.10 0.10 79 1010.3
20260904114040 11 311 12.9 29.0 0.00 0.10 0.10 80 1010.3
20260904113541 11 250 12.9 32.2 0.00 0.10 0.10 80 1010.2
20260904113056 12 298 16.1 32.2 0.00 0.10 0.10 80 1010.2
20260904112540 11 315 17.7 32.2 0.00 0.10 0.10 80 1010.1
20260904112039 11 237 14.5 27.4 0.00 0.10 0.10 80 1009.9
20260904111600 11 284 16.1 30.6 0.00 0.10 0.10 79 1009.9
20260904111039 11 243 17.7 30.6 0.00 0.10 0.10 78 1010.0
20260904110539 11 252 16.1 30.6 0.00 0.10 0.10 77 1010.0
20260904110105 11 269 14.5 37.0 0.00 0.10 0.10 77 1009.9
20260904105539 12 257 17.7 37.0 0.00 0.10 0.10 76 1009.8
20260904105039 11 257 19.3 37.0 0.00 0.10 0.10 77 1009.9
20260904104557 11 252 16.1 27.4 0.00 0.10 0.10 79 1009.9
20260904104039 11 252 16.1 25.7 0.00 0.10 0.10 80 1009.9
20260904103541 11 254 14.5 32.2 0.00 0.10 0.10 80 1009.9
20260904103054 11 316 17.7 33.8 0.00 0.10 0.10 80 1009.9
20260904102539 11 296 14.5 33.8 0.00 0.10 0.10 80 1009.7
20260904102038 11 265 17.7 33.8 0.00 0.10 0.10 80 1009.7
20260904101600 11 249 17.7 33.8 0.00 0.10 0.10 79 1009.6
20260904101038 11 267 16.1 35.4 0.00 0.10 0.10 78 1009.3
20260904100539 11 284 16.1 35.4 0.00 0.10 0.10 77 1009.4
20260904100120 11 230 20.9 37.0 0.00 0.10 0.10 76 1009.3
20260904095541 11 248 17.7 37.0 0.00 0.10 0.10 77 1009.3
20260904095039 11 268 17.7 33.8 0.00 0.10 0.10 77 1009.3
20260904094557 11 254 14.5 35.4 0.00 0.10 0.10 78 1009.2
20260904094039 11 260 16.1 35.4 0.00 0.10 0.10 78 1009.3
20260904093539 11 266 16.1 35.4 0.00 0.10 0.10 78 1009.2
20260904093055 12 261 14.5 40.2 0.00 0.10 0.10 79 1009.0
20260904092539 12 271 17.7 40.2 0.00 0.10 0.10 79 1008.9
20260904092041 12 270 17.7 32.2 0.00 0.10 0.10 80 1008.8
20260904091553 12 256 17.7 33.8 0.00 0.10 0.10 80 1008.8
20260904091042 12 300 14.5 33.8 0.00 0.10 0.10 80 1009.0
20260904090538 12 250 17.7 35.4 0.00 0.10 0.10 81 1009.0
20260904090058 12 288 17.7 35.4 0.00 0.10 0.10 81 1009.1
20260904085538 12 293 16.1 38.6 0.00 0.10 0.10 82 1008.9
20260904085040 12 231 17.7 41.8 0.00 0.10 0.10 81 1008.5
20260904084557 12 287 20.9 41.8 0.00 0.10 0.10 81 1008.3
20260904084040 12 252 20.9 35.4 0.00 0.10 0.10 80 1008.2
20260904083539 12 260 20.9 35.4 0.00 0.10 0.10 80 1008.2
20260904083106 12 273 19.3 35.4 0.00 0.10 0.10 80 1008.4
20260904082539 12 237 20.9 35.4 0.00 0.10 0.10 80 1008.3
20260904082039 12 238 19.3 35.4 0.00 0.10 0.10 80 1008.2
20260904081600 12 264 19.3 37.0 0.00 0.10 0.10 79 1008.3
20260904081039 12 242 20.9 38.6 0.00 0.10 0.10 79 1008.3
20260904080538 12 255 19.3 40.2 0.00 0.10 0.10 79 1008.1
20260904080056 12 250 22.5 40.2 0.00 0.10 0.10 78 1008.0
20260904075539 12 259 24.1 41.8 0.00 0.10 0.10 77 1007.8
20260904075038 12 263 25.7 41.8 0.00 0.10 0.10 76 1007.7
20260904074610 12 272 22.5 41.8 0.00 0.10 0.10 78 1007.6
20260904074039 12 267 20.9 40.2 0.00 0.10 0.10 80 1007.5
20260904073540 12 263 22.5 40.2 0.00 0.10 0.10 82 1007.6
20260904073100 12 236 24.1 45.1 0.00 0.10 0.10 82 1007.5
20260904072539 12 252 25.7 45.1 0.00 0.10 0.10 82 1007.6
20260904072038 12 267 24.1 41.8 0.00 0.10 0.10 83 1007.6
20260904071625 12 243 24.1 41.8 0.00 0.10 0.10 82 1007.5
20260904071039 12 249 20.9 37.0 0.00 0.10 0.10 81 1007.4
20260904070539 12 254 20.9 45.1 0.00 0.10 0.10 80 1007.4
20260904070113 12 281 22.5 46.7 0.00 0.10 0.10 80 1007.4
20260904065539 13 241 25.7 46.7 0.00 0.10 0.10 79 1007.2
20260904065039 13 253 20.9 43.5 0.00 0.10 0.10 79 1007.0
20260904064609 13 252 24.1 43.5 0.00 0.10 0.10 79 1006.8
20260904064039 13 259 24.1 41.8 0.00 0.10 0.10 79 1006.6
20260904063539 13 298 24.1 40.2 0.00 0.10 0.10 79 1006.5
20260904063100 12 244 19.3 51.5 0.00 0.10 0.10 80 1006.6
20260904062541 12 247 22.5 51.5 0.00 0.10 0.10 79 1006.6
20260904062038 12 249 17.7 41.8 0.00 0.10 0.10 80 1006.5
20260904061558 12 262 24.1 41.8 0.00 0.10 0.10 79 1006.7
20260904061039 12 261 17.7 33.8 0.00 0.10 0.10 80 1006.7
20260904060540 12 256 16.1 38.6 0.00 0.10 0.10 80 1006.6
20260904060100 12 239 22.5 38.6 0.00 0.10 0.10 79 1006.7
20260904055539 12 225 20.9 33.8 0.00 0.10 0.10 79 1006.6
20260904055039 12 286 17.7 33.8 0.00 0.10 0.10 79 1006.6
20260904054554 12 324 16.1 37.0 0.00 0.10 0.10 79 1006.6
20260904054040 12 228 17.7 37.0 0.00 0.10 0.10 79 1006.6
20260904053539 12 268 17.7 38.6 0.00 0.10 0.10 79 1006.5
20260904053108 13 260 19.3 38.6 0.00 0.10 0.10 79 1006.2
20260904052540 13 259 19.3 41.8 0.00 0.10 0.10 79 1006.1
20260904052040 13 246 17.7 43.5 0.00 0.10 0.10 79 1006.1
20260904051559 13 307 17.7 43.5 0.00 0.10 0.10 79 1006.1
20260904051039 13 248 17.7 35.4 0.00 0.10 0.10 80 1006.4
20260904050539 13 262 16.1 32.2 0.00 0.10 0.10 80 1006.2
20260904050058 13 241 17.7 48.3 0.00 0.10 0.10 80 1005.9
20260904045539 13 263 14.5 48.3 0.00 0.10 0.10 79 1005.9
20260904045039 13 244 19.3 40.2 0.00 0.10 0.10 78 1005.7
20260904044604 13 296 17.7 40.2 0.00 0.10 0.10 78 1005.7
20260904044040 13 277 19.3 38.6 0.00 0.10 0.10 77 1005.6
20260904043539 14 246 19.3 41.8 0.00 0.10 0.10 76 1005.6
20260904043105 14 308 20.9 41.8 0.00 0.10 0.10 78 1005.7
20260904042541 14 299 27.4 43.5 0.00 0.10 0.10 76 1005.5
20260904042039 14 268 19.3 43.5 0.00 0.10 0.10 75 1005.3
20260904041606 14 344 20.9 41.8 0.00 0.10 0.10 74 1005.2
20260904041039 14 243 22.5 43.5 0.00 0.10 0.10 74 1005.4
20260904040542 14 289 24.1 43.5 0.00 0.10 0.10 74 1005.4
20260904040100 14 307 19.3 45.1 0.00 0.10 0.10 74 1005.5
20260904035541 15 248 20.9 46.7 0.00 0.10 0.10 75 1005.6
20260904035040 15 229 29.0 46.7 0.00 0.10 0.10 74 1005.6
20260904034553 15 259 27.4 43.5 0.00 0.10 0.10 74 1005.6
20260904034039 15 304 20.9 38.6 0.00 0.10 0.10 76 1005.2
20260904033538 15 250 19.3 48.3 0.00 0.10 0.10 78 1005.3
20260904033104 15 265 22.5 48.3 0.00 0.10 0.10 79 1005.1
20260904032538 15 296 29.0 45.1 0.00 0.10 0.10 76 1005.0
20260904032038 15 297 20.9 48.3 0.00 0.10 0.10 78 1005.0
20260904031606 15 254 24.1 48.3 0.00 0.10 0.10 77 1004.9
20260904031038 15 253 24.1 48.3 0.00 0.10 0.10 76 1004.9
20260904030539 15 254 29.0 49.9 0.00 0.10 0.10 77 1004.8
20260904030056 15 254 27.4 49.9 0.00 0.10 0.10 76 1004.8
20260904025539 15 240 24.1 48.3 0.00 0.10 0.10 76 1004.7
20260904025039 15 235 22.5 53.1 0.00 0.10 0.10 76 1004.6
20260904024549 15 250 25.7 53.1 0.00 0.10 0.10 75 1004.3
20260904024039 15 278 27.4 56.3 0.00 0.10 0.10 76 1004.0
20260904023538 15 302 25.7 56.3 0.00 0.10 0.10 78 1003.7
20260904023102 15 271 29.0 59.5 0.00 0.10 0.10 78 1003.2
20260904022542 15 290 32.2 59.5 0.00 0.10 0.10 78 1003.2
20260904022039 15 247 33.8 59.5 0.00 0.10 0.10 80 1003.0
20260904021557 15 248 32.2 57.9 0.00 0.10 0.10 79 1002.9
20260904021038 15 249 33.8 54.7 0.00 0.10 0.10 80 1002.8
20260904020539 16 275 27.4 53.1 0.00 0.10 0.10 81 1003.0
20260904020056 15 277 35.4 56.3 0.00 0.10 0.10 82 1003.3
20260904015539 16 248 32.2 59.5 0.00 0.10 0.10 82 1003.0
20260904015039 16 293 29.0 59.5 0.00 0.10 0.10 81 1003.3
20260904014554 16 264 30.6 59.5 0.00 0.10 0.10 81 1003.3
20260904014039 16 251 25.7 57.9 0.00 0.10 0.10 83 1003.5
20260904013539 16 312 27.4 57.9 0.00 0.10 0.10 84 1003.5
20260904013047 16 281 29.0 53.1 0.00 0.10 0.10 82 1003.5
20260904012539 16 244 22.5 46.7 0.00 0.10 0.10 83 1003.5
20260904012041 16 265 25.7 62.8 0.00 0.10 0.10 84 1003.6
20260904011559 16 280 30.6 62.8 0.00 0.10 0.10 83 1003.4
20260904011039 16 292 32.2 59.5 0.00 0.10 0.10 83 1003.5
20260904010539 16 255 27.4 62.8 0.00 0.10 0.10 83 1003.5
20260904010057 16 229 22.5 62.8 0.00 0.10 0.10 85 1003.9
20260904005541 16 273 20.9 46.7 0.00 0.10 0.10 83 1004.2
20260904005039 16 274 24.1 59.5 0.00 0.10 0.10 86 1004.3
20260904004553 16 257 25.7 61.2 0.00 0.10 0.10 85 1004.4
20260904004039 16 246 29.0 61.2 0.00 0.10 0.10 84 1004.3
20260904003540 16 260 24.1 45.1 0.00 0.10 0.10 86 1004.1
20260904003100 15 244 25.7 59.5 0.00 0.10 0.10 88 1003.8
20260904002538 15 300 24.1 59.5 0.00 0.10 0.10 88 1003.6
20260904002041 15 279 32.2 70.8 0.00 0.10 0.10 88 1003.1
20260904001559 15 261 40.2 70.8 0.00 0.10 0.10 88 1003.2
20260904001040 16 287 41.8 70.8 0.00 0.10 0.10 84 1003.5
20260904000542 16 300 37.0 64.4 0.00 0.10 0.10 83 1003.2
20260904000056 16 275 35.4 69.2 0.00 0.10 0.10 84 1003.4
20260903235543 16 257 37.0 69.2 0.00 0.10 0.10 84 1003.2
20260903235039 16 264 32.2 66.0 0.00 0.10 0.10 85 1003.2
20260903234553 16 259 32.2 64.4 0.00 0.10 0.10 86 1003.3
20260903234039 16 284 32.2 67.6 0.00 0.10 0.10 86 1003.3
20260903233539 16 288 27.4 67.6 0.03 0.10 0.10 86 1003.3
20260903233241 16 322 32.2 64.4 0.03 0.10 0.10 86 1003.1
20260903232536 16 293 30.6 64.4 0.03 0.10 0.10 88 1003.4
20260903232036 15 283 32.2 67.6 0.03 0.10 0.10 89 1003.2
20260903231607 15 296 27.4 67.6 0.05 0.10 0.10 89 1003.7
20260903231040 15 296 35.4 67.6 0.08 0.10 0.10 90 1003.7
20260903230540 15 292 37.0 61.2 0.08 0.10 0.10 92 1003.6
20260903225540 14 273 32.2 56.3 0.08 0.08 0.08 92 1004.1
20260903225042 14 267 22.5 45.1 0.08 0.08 0.08 93 1004.1
20260903224602 13 316 22.5 45.1 0.08 0.08 0.08 93 1003.8
20260903224042 14 269 22.5 45.1 0.08 0.08 0.08 93 1004.0
20260903223539 14 241 24.1 41.8 0.05 0.08 0.08 92 1004.0
20260903223059 14 273 25.7 46.7 0.05 0.08 0.08 91 1004.0
20260903222539 14 285 22.5 46.7 0.05 0.08 0.08 91 1003.9
20260903222040 15 249 22.5 40.2 0.05 0.08 0.08 90 1003.6
20260903221557 15 264 24.1 40.2 0.03 0.05 0.05 89 1003.7
20260903221039 15 276 20.9 41.8 0.00 0.03 0.03 88 1004.0
20260903220542 15 273 25.7 41.8 0.00 0.03 0.03 88 1004.0
20260903220055 15 267 22.5 41.8 0.00 0.00 0.00 87 1003.9
20260903215540 15 277 14.5 38.6 0.00 0.00 0.00 87 1004.2
20260903215039 15 260 16.1 30.6 0.00 0.00 0.00 86 1004.1
20260903214602 15 294 17.7 30.6 0.00 0.00 0.00 87 1004.4
20260903214042 15 273 16.1 29.0 0.00 0.00 0.00 87 1004.4
20260903213538 15 289 16.1 33.8 0.00 0.00 0.00 86 1004.4
20260903213049 15 257 17.7 33.8 0.00 0.00 0.00 85 1004.4
20260903212539 15 320 16.1 33.8 0.00 0.00 0.00 84 1004.4
20260903212039 15 277 17.7 30.6 0.00 0.00 0.00 84 1004.2
20260903211557 15 277 19.3 30.6 0.00 0.00 0.00 84 1004.2
20260903211042 15 261 16.1 32.2 0.00 0.00 0.00 85 1004.2
20260903210540 15 244 17.7 32.2 0.00 0.00 0.00 85 1004.1
20260903210056 15 273 19.3 32.2 0.00 0.00 0.00 84 1004.4
20260903205540 15 265 16.1 32.2 0.00 0.00 0.00 84 1004.7
20260903205044 14 267 12.9 22.5 0.00 0.00 0.00 85 1004.8
20260903204556 14 281 9.7 22.5 0.00 0.00 0.00 86 1004.9
20260903204039 13 284 8.0 22.5 0.00 0.00 0.00 86 1004.9
20260903203538 13 255 4.8 16.1 0.00 0.00 0.00 86 1005.1
20260903203100 13 269 6.4 16.1 0.00 0.00 0.00 86 1005.2
20260903202540 13 243 4.8 14.5 0.00 0.00 0.00 86 1005.5
20260903202043 14 258 4.8 19.3 0.00 0.00 0.00 86 1005.6
20260903201556 14 236 8.0 19.3 0.00 0.00 0.00 86 1005.8
20260903201039 14 263 9.7 19.3 0.00 0.00 0.00 86 1005.9
20260903200542 13 248 8.0 17.7 0.00 0.00 0.00 86 1006.2
20260903200051 13 263 8.0 17.7 0.00 0.00 0.00 87 1006.2
20260903195538 13 267 4.8 16.1 0.00 0.00 0.00 88 1006.2
20260903195039 13 98 4.8 16.1 0.00 0.00 0.00 88 1006.1
20260903194559 13 285 3.2 16.1 0.00 0.00 0.00 88 1006.2
20260903194041 13 243 4.8 14.5 0.00 0.00 0.00 88 1006.4
20260903193538 13 267 6.4 14.5 0.00 0.00 0.00 89 1006.4
20260903193057 13 40 1.6 12.9 0.00 0.00 0.00 89 1006.5
20260903192539 13 264 6.4 19.3 0.00 0.00 0.00 89 1006.6
20260903192039 13 49 8.0 19.3 0.00 0.00 0.00 89 1006.7
20260903191549 13 360 8.0 19.3 0.00 0.00 0.00 89 1006.7
20260903191039 13 301 9.7 19.3 0.00 0.00 0.00 90 1006.9
20260903190541 13 289 9.7 19.3 0.00 0.00 0.00 90 1007.0
20260903190058 13 281 12.9 19.3 0.00 0.00 0.00 90 1006.9
20260903185540 13 324 9.7 19.3 0.00 0.00 0.00 90 1007.0
20260903185038 13 284 11.3 20.9 0.00 0.00 0.00 90 1007.0
20260903184558 13 270 8.0 20.9 0.00 0.00 0.00 90 1007.0
20260903184040 13 284 8.0 17.7 0.00 0.00 0.00 90 1007.0
20260903183540 13 281 8.0 22.5 0.00 0.00 0.00 90 1007.1
20260903183055 13 276 12.9 25.7 0.00 0.00 0.00 90 1007.1
20260903182539 13 289 14.5 25.7 0.00 0.00 0.00 90 1007.2
20260903182038 13 300 16.1 25.7 0.00 0.00 0.00 91 1007.2
20260903181601 13 260 16.1 25.7 0.00 0.00 0.00 91 1007.2
20260903181039 13 275 14.5 24.1 0.00 0.00 0.00 91 1007.3
20260903180539 13 319 14.5 24.1 0.00 0.00 0.00 91 1007.1
20260903180115 13 278 14.5 24.1 0.00 0.00 0.00 91 1007.2
20260903175541 13 293 14.5 27.4 0.00 0.00 0.00 91 1007.4
20260903175041 13 273 16.1 27.4 0.00 0.00 0.00 91 1007.5
20260903174558 13 273 12.9 24.1 0.00 0.00 0.00 92 1007.6
20260903174041 13 286 11.3 22.5 0.00 0.00 0.00 92 1007.5
20260903173540 13 257 6.4 22.5 0.00 0.00 0.00 92 1007.6
20260903173057 13 312 9.7 20.9 0.00 0.00 0.00 92 1007.6
20260903172539 13 279 11.3 20.9 0.00 0.00 0.00 93 1007.7
20260903172039 13 271 11.3 24.1 0.00 0.00 0.00 93 1007.9
20260903171554 13 273 11.3 24.1 0.00 0.00 0.00 93 1007.8
20260903171040 13 321 11.3 24.1 0.00 0.00 0.00 93 1008.0
20260903170539 13 259 9.7 22.5 0.00 0.00 0.00 93 1008.0
20260903170047 13 270 9.7 22.5 0.00 0.00 0.00 93 1008.0
20260903165542 13 268 9.7 24.1 0.00 0.00 0.00 93 1008.1
20260903165044 13 259 9.7 25.7 0.00 0.00 0.00 93 1008.1
20260903164605 13 263 11.3 25.7 0.00 0.00 0.00 93 1008.2